User: anonymous   Login
Location: Caribou
(46.8667°N, 68.0167°W)
Time: 03:13:47
(UTC-04:00)
Language:

SL-08 RB Rocket - Orbit

View from above orbital plane
View from above orbital plane
View from above satellite
View from above satellite

Ground track
Ground track

The orbit data is extracted from the following two-line orbital elements,

1 26387U 00033D   16242.20014887  .00000071  00000-0  20721-4 0  9991
2 26387  98.0117 307.3121 0026540 181.8636 239.4955 14.68181295865035
Epoch (UTC): 29 August 2016 04:48:12
Eccentricity: 0.0026540
inclination: 98.0117°
perigee height: 648 km
apogee height: 685 km
right ascension of ascending node: 307.3121°
argument of perigee: 181.8636°
revolutions per day: 14.68181295
mean anomaly at epoch: 239.4955°
orbit number at epoch: 86503

The dashed part of the orbit path shows where the satellite is in the earth's shadow,  

DLR